Voltar ao catálogo

STARLINK-35830

AtivoComunicaçõesVLEO
NORAD 66284·PAYLOAD·🇺🇸 United States

Lançado Oct 31, 2025 de Vandenberg Space Force Base

Loading…

Próximas Passagens (próximas 24 horas)

TLE

AtualizadoSource: CelesTrak SupGP

Época: Sep 14, 2026, 22:56 UTC

1 66284C 25247V   26257.95604167 -.00002866  00000+0 -84716-4 0  2576
2 66284  53.1590  29.5983 0001086  77.9758 134.5209 15.34380462    16

Acompanhe STARLINK-35830 em tempo real com AllMySat

Download on the App Store